Location: Oklahoma City
(35.4680°N, 97.5160°W)
Time: 04:25:23
(UTC-06:00)

ISS - Visible Passes

Search period start: 18 November 2017 00:00
Search period end: 28 November 2017 00:00
Orbit: 401 x 407 km, 51.6° (Epoch: 18 November)

Date Brightness Start Highest point End Pass type
(mag) Time Alt. Az. Time Alt. Az. Time Alt. Az.
18 Nov -0.6 04:42:08 14° E 04:42:08 14° E 04:42:47 10° E visible
18 Nov -2.8 06:14:49 18° W 06:16:38 31° SW 06:19:33 10° SSE visible
19 Nov -3.2 05:25:07 50° SSE 05:25:07 50° SSE 05:27:40 10° SE visible
20 Nov -1.5 06:08:11 12° SW 06:08:16 12° SW 06:09:29 10° SSW visible
21 Nov -1.0 05:18:37 11° S 05:18:37 11° S 05:18:51 10° S visible
24 Nov -1.9 19:13:37 10° SSW 19:15:13 25° SSW 19:15:13 25° SSW visible
25 Nov -2.5 18:21:52 10° S 18:24:35 24° SE 18:25:26 22° ESE visible
26 Nov -3.1 19:05:18 10° WSW 19:08:13 49° WNW 19:08:13 49° WNW visible
27 Nov -3.9 18:12:52 10° SW 18:16:07 72° SE 18:18:14 20° NE visible
